Regional Weather Roundup
Issued by NWS Green Bay, WI

Home | Current Version | Previous Version | Text Only | Print | Product List | Glossary On
Versions: 1 2 3 4 5 6 7 8 9 10 11 12 13 14 15 16 17 18 19 20 21 22 23 24 25 26 27 28 29 30 31 32 33 34 35 36 37 38 39 40 41 42 43 44 45 46 47 48 49 50
600
ASUS43 KGRB 262000
RWRGRB

NORTH-CENTRAL AND NORTHEAST WISCONSIN REGIONAL WEATHER ROUNDUP
NATIONAL WEATHER SERVICE GREEN BAY WI
200 PM CST SUN FEB 26 2017

WIZ005-009-010>012-018-019-262100-
NORTH CENTRAL WISCONSIN

CITY           SKY/WX    TMP DP  RH WIND       PRES   REMARKS
IRONWOOD       FLURRIES  23  19  85 NW17G23   29.71R WCI   9
MANITOWISH WTR NOT AVBL
ARBOR VITAE    NOT AVBL
EAGLE RIVER    NOT AVBL
LAND O LAKES   NOT AVBL
RHINELANDER    CLOUDY    31  20  63 W14       29.68R
PHILLIPS       NOT AVBL
ANTIGO         NOT AVBL
TOMAHAWK       NOT AVBL
MERRILL        NOT AVBL
$$

WIZ013-073-262100-
NORTHEAST WISCONSIN

CITY           SKY/WX    TMP DP  RH WIND       PRES   REMARKS
IRON MOUNTAIN  CLOUDY    34  18  52 SW10G24   29.65S
MARINETTE      PTSUNNY   37  21  52 SW13      29.73S
$$

WIZ017-030-035>037-045-262100-
CENTRAL WISCONSIN

CITY           SKY/WX    TMP DP  RH WIND       PRES   REMARKS
MEDFORD        NOT AVBL
WAUSAU         CLOUDY    33  22  63 W13       29.73S
MOSINEE        CLOUDY    34  21  60 SW17G24   29.75S
MARSHFIELD     CLOUDY    34  19  54 W15       29.75R
WISC RAPIDS    CLOUDY    38  18  44 W15G28    29.78S
STEVENS POINT  NOT AVBL
WAUPACA        NOT AVBL
SHAWANO        CLOUDY    39  22  49 SW12G22   29.74F
CLINTONVILLE   NOT AVBL
WAUTOMA        MOSUNNY   40  22  48 SW18G24   29.79S
$$

WIZ038-039-048-051-262100-
FOX VALLEY

CITY           SKY/WX    TMP DP  RH WIND       PRES   REMARKS
NWS GREEN BAY  SUNNY     38  25  59 SW13G21   29.77S
APPLETON       MOSUNNY   37  21  52 SW16G22   29.76S
OSHKOSH        SUNNY     37  24  59 SW15G22   29.79S
FOND DU LAC    SUNNY     37  23  56 SW14G25   29.82R
$$

WIZ022-050-052-262100-
EAST CENTRAL WISCONSIN

CITY           SKY/WX    TMP DP  RH WIND       PRES   REMARKS
EPHRAIM        NOT AVBL
WASHINGTON ISL NOT AVBL
STURGEON BAY   SUNNY     35  23  61 SW15G24   29.75F
MANITOWOC      NOT AVBL
SHEBOYGAN      SUNNY     37  25  61 SW17G23   29.82S
$$

LMZ563-521-522-541>543-262100-
LAKESHORE

STATION/POSITION TIME  TEMP    WIND        PRES    VSBY  WAVE
                       AIR SEA DIR/SP/G                  HT/PER
                 (UTC) (F)     (DEG/KT/KT) (MB)    (MI)  (FT/S)
SHEBOYGAN LKSHOR 1900   36     240/ 22/ 26 1010.5F
KEWAUNEE LKSHORE 1930   36     230/ 11/ 19 1008.1F
NORTHPORT PIER   1940   35     220/ 12/ 21 1007.1S
SISTER BAY LKSHO 1905   37        CALM       N/A
CHAMBERS ISLAND  1940   36     190/  8/ 16 1006.4F
MENOMINEE LKSHOR 1930   36     220/ 19/ 23 1006.1F
$$




USA.gov is the U.S. government's official web portal to all federal, state and local government web resources and services.